West Palm Beach, FL

9:40 PM EST on November 16, 2019 (GMT -0500)
Palm Beach International

Weather History for KPBI - July, 2019

Change the Weather History Date:

Thursday, July 25, 2019

  Actual Average Record
Temperature  
Mean Temperature 84 °F 83 °F  
Max Temperature 93 °F 90 °F 98 °F (1940)
Min Temperature 75 °F 76 °F 66 °F (1940)
Degree Days  
Heating Degree Days 0 0  
Month to date heating degree days 0  
Since 1 June heating degree days 0  
Since 1 July heating degree days 0  
Cooling Degree Days 19 18  
Month to date cooling degree days 439  
Year to date cooling degree days 2038  
Since 1 June cooling degree days 929  
Growing Degree Days 34 (Base 50)    
Moisture  
Dew Point 74 °F    
Average Humidity 77    
Maximum Humidity 94    
Minimum Humidity 41    
Precipitation  
Precipitation 0.71 in 0.18 in 2.10 in (1891)
Month to date precipitation 4.69  
Year to date precipitation 31.70  
Snow  
Snow 0.00 in - - ()
Month to date snowfall  
Since 1 June snowfall  
Since 1 July snowfall  
Snow Depth -    
Sea Level Pressure  
Sea Level Pressure 30.05 in    
Wind  
Wind Speed 6 mph (South)    
Max Wind Speed 34 mph    
Max Gust Speed 46 mph    
Visibility 10 miles    
Events Rain , Thunderstorm    
T = Trace of Precipitation, MM = Missing Value Source: NWS Daily Summary

Daily Weather History Graph

Daily Weather History Graph

Search for Another Location

Airport or City:

Astronomy

Jul. 25, 2019 Rise Set
Actual Time 6:41 AM EDT 8:12 PM EDT
Civil Twilight 6:16 AM EDT 8:37 PM EDT
Nautical Twilight 5:45 AM EDT 9:07 PM EDT
Astronomical Twilight 5:14 AM EDT 9:39 PM EDT
Moon 1:06 AM EDT (7/25) 2:06 PM EDT (7/25)
Length of Visible Light 14h 21m
Length of Day
13h 30m
Last Quarter, 44% of the Moon is Illuminated
Jul 25
Last Quarter
Jul 31
New
Aug 7
First Quarter
Aug 15
Full
Aug 23
Last Quarter

Hourly Weather History & Observations

Time (EDT) Temp. Heat Index Dew Point Humidity Pressure Visibility Wind Dir Wind Speed Gust Speed Precip Events Conditions
12:53 AM 79.0 °F - 73.9 °F 84% 30.02 in 10.0 mi SSE 5.8 mph - N/A   Scattered Clouds
1:53 AM 79.0 °F - 73.9 °F 84% 30.02 in 10.0 mi South 3.5 mph - N/A   Scattered Clouds
2:53 AM 79.0 °F - 73.9 °F 84% 30.02 in 10.0 mi South 5.8 mph - N/A   Scattered Clouds
3:53 AM 79.0 °F - 72.0 °F 79% 30.01 in 10.0 mi SW 3.5 mph - N/A   Scattered Clouds
4:53 AM 78.1 °F - 72.0 °F 81% 29.98 in 10.0 mi SSW 4.6 mph - N/A   Scattered Clouds
5:53 AM 79.0 °F - 72.0 °F 79% 29.98 in 10.0 mi Calm Calm - N/A   Scattered Clouds
6:53 AM 78.1 °F - 75.0 °F 90% 30.00 in 10.0 mi Calm Calm - N/A   Mostly Cloudy
7:53 AM 80.1 °F 85.1 °F 75.0 °F 85% 30.01 in 10.0 mi SW 6.9 mph - N/A   Mostly Cloudy
8:53 AM 82.0 °F 89.4 °F 75.9 °F 82% 30.03 in 10.0 mi SW 5.8 mph - N/A   Mostly Cloudy
9:53 AM 84.0 °F 92.6 °F 75.9 °F 76% 30.05 in 10.0 mi WSW 6.9 mph - N/A   Mostly Cloudy
10:53 AM 86.0 °F 96.0 °F 75.9 °F 72% 30.06 in 10.0 mi Variable 6.9 mph - N/A   Mostly Cloudy
11:53 AM 89.1 °F 97.0 °F 73.0 °F 59% 30.06 in 10.0 mi West 5.8 mph - N/A   Scattered Clouds
12:53 PM 91.9 °F 99.5 °F 72.0 °F 52% 30.06 in 10.0 mi West 6.9 mph - N/A   Scattered Clouds
1:53 PM 93.0 °F 100.7 °F 72.0 °F 50% 30.05 in 10.0 mi NNW 8.1 mph - N/A   Scattered Clouds
2:53 PM 89.1 °F 99.1 °F 75.0 °F 63% 30.03 in 10.0 mi East 11.5 mph - N/A   Scattered Clouds
2:58 PM 89.1 °F 99.1 °F 75.0 °F 63% 30.03 in 10.0 mi East 11.5 mph - N/A Thunderstorm Thunderstorm
3:40 PM 84.9 °F 94.1 °F 75.9 °F 74% 30.05 in 1.0 mi South 34.5 mph 46.0 mph 0.03 in Rain , Thunderstorm Heavy Thunderstorms and Rain
4:14 PM 75.9 °F - 72.0 °F 87% 30.07 in 3.0 mi North 11.5 mph 25.3 mph 0.18 in Rain , Thunderstorm Thunderstorms and Rain
4:53 PM 75.0 °F - 73.0 °F 94% 30.06 in 10.0 mi NNE 6.9 mph - 0.18 in Thunderstorm Thunderstorm
5:23 PM 75.9 °F - 73.0 °F 91% 30.06 in 10.0 mi NNE 4.6 mph - N/A   Mostly Cloudy
5:53 PM 78.1 °F - 73.0 °F 84% 30.07 in 10.0 mi NE 8.1 mph - N/A   Mostly Cloudy
6:53 PM 78.1 °F - 73.9 °F 87% 30.06 in 10.0 mi East 9.2 mph - N/A   Mostly Cloudy
7:53 PM 79.0 °F - 73.0 °F 82% 30.09 in 10.0 mi South 4.6 mph - N/A   Mostly Cloudy
8:53 PM 78.1 °F - 73.9 °F 87% 30.09 in 10.0 mi SE 4.6 mph - N/A   Mostly Cloudy
9:53 PM 79.0 °F - 73.0 °F 82% 30.11 in 10.0 mi Calm Calm - N/A   Scattered Clouds
10:53 PM 78.1 °F - 73.9 °F 87% 30.11 in 10.0 mi Calm Calm - N/A   Scattered Clouds
11:53 PM 78.1 °F - 72.0 °F 81% 30.11 in 10.0 mi Calm Calm - N/A   Partly Cloudy